Regional Weather Roundup
Issued by NWS Northern Indiana

Home | Current Version | Previous Version | Graphics & Text | Print | Product List | Glossary On
Versions: 1 2 3 4 5 6 7 8 9 10 11 12 13 14 15 16 17 18 19 20 21 22 23 24 25 26 27 28 29 30 31 32 33 34 35 36 37 38 39 40 41 42 43 44 45 46 47 48 49 50
000
ASUS43 KIWX 031000
RWRIWX

KIWX WEATHER ROUNDUP
NATIONAL WEATHER SERVICE NORTHERN INDIANA
600 AM EDT MON AUG 03 2015

NOTE: "FAIR" INDICATES FEW OR NO CLOUDS BELOW 12,000 FEET WITH NO
SIGNIFICANT WEATHER AND/OR OBSTRUCTIONS TO VISIBILITY.

* THESE STATIONS ARE NOT UNDER NWS QUALITY CONTROL. THEY ALSO MAY NOT
  REPORT WEATHER SUCH AS PRECIPITATION OR FOG.

INZ001>027-031100-
NORTHERN INDIANA

CITY           SKY/WX    TMP DP  RH WIND       PRES   REMARKS
GARY*          PTCLDY    68  66  94 W5        29.78R
KNOX*          PTCLDY    61  61 100 CALM      29.77R
SOUTH BEND     MOCLDY    65  63  93 SW3       29.77S
GOSHEN         CLOUDY    64  62  93 SW7       29.78R
MONTICELLO*    CLOUDY    66  66 100 N3        29.78R
WARSAW*        CLOUDY    61  61 100 W3        29.79R
ANGOLA*        CLOUDY    63  63 100 SW3       29.79R
FORT WAYNE     CLOUDY    64  62  93 S10       29.80S
PERU/GRISSOM   MOCLDY    66  64  94 W3        29.79R

$$
INZ028>050-031100-
CENTRAL INDIANA

CITY           SKY/WX    TMP DP  RH WIND       PRES   REMARKS
LAFAYETTE      CLEAR     66  65  96 CALM      29.78F
KOKOMO*        CLOUDY    64  61  88 S8        29.80R
MUNCIE*        CLOUDY    63  63 100 SE6       29.82F
INDIANAPOLIS   CLOUDY    71  62  73 SE8       29.80S

$$
MIZ043>046-050>051-056>058-064>065-071>073-077>080-031100-
SOUTHWEST LOWER MICHIGAN

CITY           SKY/WX    TMP DP  RH WIND       PRES   REMARKS
BATTLE CREEK   MOCLDY    63  61  93 SW5       29.76S
BENTON HARBOR  CLEAR     63  61  93 S3        29.75S FOG
COLDWATER*     CLOUDY    63  62  96 CALM      29.78R
HILLSDALE*     CLOUDY    63  63 100 SW7       29.79R
HOLLAND        FOG       62  61  96 CALM      29.76R VSB 3/4
GRAND RAPIDS   PTCLDY    64  63  96 W6        29.75S
KALAMAZOO      MOCLDY    65  62  90 SW3       29.76F
STURGIS*       CLOUDY    63  63 100 CALM      29.77R
THREE RIVERS*  CLOUDY    63  62  97 S3        29.77S

$$
OHZ001>008-015>018-024>025-031100-
NORTHWEST OHIO

CITY           SKY/WX    TMP DP  RH WIND       PRES   REMARKS
DEFIANCE       CLOUDY    64  61  90 CALM      29.80S
FINDLAY        CLOUDY    64  61  90 S14       29.78R
TOLEDO EXPRESS CLOUDY    62  61  96 S10       29.77F
TOLEDO METCALF CLOUDY    64  60  87 SW10      29.79R
LIMA           CLOUDY    63  61  93 S12       29.80R

$$
AND FOR LAKE MICHIGAN COASTAL AND OPEN LAKE BUOY OBSERVATIONS

STATION/POSITION TEMP    WIND        PRES    VSBY  WAVE
                 AIR SEA DIR/SP/G                  HT/PER
                 (F)     (DEG/KT/KT) (MB)    (MI)  (FT/S)
CALUMET HARBOR    68     230/  3/  4   N/A
MICHIGAN CITY     70     290/  3/  4   N/A
BURNS HARBOR      72     290/  4/  6 1008.1S
SAINT JOSEPH      70     340/  4/  7 1008.8R
4 MI NW BRIDGMAN  71 73  360/  6/  6   N/A           3/ 5
MICHIGAN CITY     72 73  330/  2/  4   N/A           3/ 5

$$
&&



USA.gov is the U.S. government's official web portal to all federal, state and local government web resources and services.